ACA858 CYYZ-EGLL

Flight info

Callsign ACA858
Flight time N/A
Altitude 35000
Route BOMET8 IPTOS Q921 SOKYE/N0412F170 T781 IMORI T660 ANATI/N0491F350 DCT RIKAL DCT H5252/M084F350 DCT 5350N DCT H5348 DCT 5445N DCT H5443 DCT 5540N DCT H5538 DCT 5635N DCT H5632 DCT H5631 DCT H5628 DCT H5625 DCT H5621 DCT H5618 DCT BILTO/N0480F350 DCT RUXIN DCT MIMKU/N0470F250 N562 MAC/N0477F380 DCT QQ1/N0481F370 DCT VYL DCT WD2 DCT FITBO FITB2H
Aircraft B77W/H-SDE1E2E3FGHIJ2J3J4J5M1RWXY/LB1D1

Departure

Time 2026-05-04 06:57
Airport Toronto Pearson International Airport (CYYZ)

Arrival

Time N/A
Airport London Heathrow Airport (EGLL)
Time Latitude Longitude Altitude Speed Heading
2026-05-04 06:33 43.67607 -79.61327 556 ft 0 kts 42°
2026-05-04 06:44 43.67606 -79.61329 556 ft 0 kts 42°
2026-05-04 06:44 43.67596 -79.61341 554 ft 3 kts 42°
2026-05-04 06:45 43.67574 -79.61369 551 ft 5 kts 42°
2026-05-04 06:45 43.67565 -79.61381 551 ft 0 kts 42°
2026-05-04 06:45 43.67564 -79.61382 551 ft 1 kts 42°
2026-05-04 06:46 43.67555 -79.61398 551 ft 2 kts 67°
2026-05-04 06:46 43.67551 -79.61417 552 ft 2 kts 89°
2026-05-04 06:46 43.67553 -79.61437 553 ft 2 kts 110°
2026-05-04 06:46 43.67561 -79.61454 555 ft 2 kts 131°
2026-05-04 06:48 43.67573 -79.61471 556 ft 0 kts 134°
2026-05-04 06:50 43.67487 -79.61252 548 ft 17 kts 100°
2026-05-04 06:51 43.67454 -79.61121 546 ft 13 kts 145°
2026-05-04 06:51 43.67377 -79.61060 542 ft 13 kts 96°
2026-05-04 06:51 43.67408 -79.60944 542 ft 13 kts 55°
2026-05-04 06:51 43.67468 -79.60836 542 ft 13 kts 50°
2026-05-04 06:52 43.67528 -79.60747 544 ft 11 kts 46°
2026-05-04 06:52 43.67579 -79.60675 545 ft 9 kts 46°
2026-05-04 06:52 43.67635 -79.60590 546 ft 15 kts 47°
2026-05-04 06:52 43.67717 -79.60475 546 ft 18 kts 45°
2026-05-04 06:53 43.67809 -79.60341 547 ft 18 kts 46°
2026-05-04 06:53 43.67894 -79.60217 548 ft 17 kts 46°
2026-05-04 06:53 43.67959 -79.60123 551 ft 8 kts 46°
2026-05-04 06:53 43.67977 -79.60062 552 ft 6 kts 98°
2026-05-04 06:54 43.67969 -79.59985 550 ft 9 kts 71°
2026-05-04 06:54 43.68006 -79.59911 550 ft 9 kts 48°
2026-05-04 06:54 43.68020 -79.59837 551 ft 7 kts 108°
2026-05-04 06:54 43.67990 -79.59772 550 ft 8 kts 127°
2026-05-04 06:55 43.67944 -79.59719 550 ft 8 kts 147°
2026-05-04 06:55 43.67905 -79.59731 550 ft 6 kts 220°
2026-05-04 06:55 43.67889 -79.59752 550 ft 0 kts 224°
2026-05-04 06:55 43.67880 -79.59763 550 ft 9 kts 225°
2026-05-04 06:56 43.67628 -79.60128 549 ft 94 kts 227°
2026-05-04 06:57 43.60215 -79.63559 4616 ft 265 kts 149°
2026-05-04 06:58 43.58957 -79.61585 5253 ft 293 kts 120°
2026-05-04 06:58 43.58412 -79.58815 6148 ft 304 kts 98°
2026-05-04 06:58 43.58187 -79.55948 7192 ft 305 kts 96°
2026-05-04 06:58 43.57988 -79.53043 8186 ft 309 kts 95°
2026-05-04 06:59 43.57789 -79.50131 9108 ft 312 kts 95°
2026-05-04 06:59 43.57586 -79.47154 10066 ft 315 kts 95°
2026-05-04 06:59 43.57541 -79.44084 10768 ft 328 kts 84°
2026-05-04 06:59 43.57972 -79.40932 11302 ft 343 kts 70°
2026-05-04 07:01 43.70347 -79.21506 15688 ft 432 kts 51°
2026-05-04 07:01 43.71919 -79.17914 16542 ft 441 kts 59°
2026-05-04 07:02 43.73314 -79.14139 17407 ft 446 kts 60°
2026-05-04 07:02 43.74706 -79.10312 18237 ft 451 kts 60°
2026-05-04 07:02 43.76124 -79.06405 19075 ft 456 kts 60°
2026-05-04 07:02 43.77530 -79.02522 19914 ft 459 kts 60°
2026-05-04 07:03 43.78964 -78.98555 20704 ft 464 kts 59°
2026-05-04 07:03 43.80410 -78.94550 21455 ft 469 kts 59°
2026-05-04 07:03 43.81862 -78.90524 22224 ft 472 kts 59°
2026-05-04 07:03 43.83320 -78.86472 22962 ft 476 kts 59°
2026-05-04 07:04 43.84803 -78.82344 23654 ft 481 kts 59°
2026-05-04 07:04 43.86336 -78.78206 24277 ft 485 kts 57°
2026-05-04 07:04 43.87924 -78.74133 24940 ft 488 kts 57°
2026-05-04 07:04 43.89542 -78.69989 25563 ft 492 kts 57°
2026-05-04 07:05 43.91174 -78.65795 26178 ft 496 kts 57°
2026-05-04 07:05 43.92810 -78.61579 26774 ft 501 kts 57°